{"data":{"norad_id":52859,"intl_designator":"2022-062AF","name":"STARLINK-4196","alt_names":[],"object_type":"PAYLOAD","status":"ACTIVE","operator":null,"country":"US","launch_date":"2022-06-17","launch_site_code":"AFETR","launch_vehicle":null,"mission":null,"orbit_class":"UNKNOWN","rcs_meters":null,"size_class":null,"mass_kg":null,"dimensions":null,"purposes":["comms"],"wikipedia_slug":null,"has_3d_model":false,"image_url":null,"decayed_at":null,"tle_current":{"epoch":"2026-05-25T02:50:35.348352Z","epoch_age_seconds":60924,"freshness":"FRESH","line1":"1 52859U 22062AF  26145.11846468  .00000291  00000+0  36358-4 0  9997","line2":"2 52859  53.2138  41.0152 0001312  87.5657 272.5485 15.08840070217467","mean_motion":15.0884007,"eccentricity":0.0001312,"inclination_deg":53.2138,"raan_deg":41.0152,"arg_perigee_deg":87.5657,"mean_anomaly_deg":272.5485,"bstar":3.6358e-5,"rev_number":21746,"period_min":95.437550250107,"perigee_km":538.83554912316,"apogee_km":540.65080088108,"semimajor_km":6917.8801750021,"source":"CELESTRAK","updated_at":"2026-05-25T13:38:17.246966Z"}}}